User: anonymous   Login
Location: Unspecified
(0.0000°N, 0.0000°E)
Time: 21:55:40
(UTC+00:00)
Language:

SR - Orbit

View from above orbital plane
View from above orbital plane
View from above satellite
View from above satellite

Ground track
Ground track

The orbit data is extracted from the following two-line orbital elements,

1 00046U 60007B   17326.78168750  .00000097  00000-0  42726-4 0  9995
2 00046  66.6919  59.7688 0203800 110.8378 251.4687 14.49094088  3231
Epoch (UTC): 22 November 2017 18:45:37
Eccentricity: 0.0203800
inclination: 66.6919°
perigee height: 584 km
apogee height: 873 km
right ascension of ascending node: 59.7688°
argument of perigee: 110.8378°
revolutions per day: 14.49094088
mean anomaly at epoch: 251.4687°
orbit number at epoch: 323

The dashed part of the orbit path shows where the satellite is in the earth's shadow,  

DLR